Date String (YYYY-MM-DD hh:mm:ss) UTC,Instrument flags,absolute air pressure of the measurement (hPa),sample flow rate (lpm),inlet stack bypass flow (lpm),air temperature of the measurement (°C),ambient temperature measured by the external sensor (°C),aerosol sample conditioner tube jacket temperature (°C),OPC LED temperature (°C),internal box temperature (°C),relative humidity of the measurement (%),span deviation,mass concentration of particles derived from Lorenz-Mie calculation of OPC scattering (μg/m³),mass concentration of particles derived from Lorenz-Mie calculation of OPC scattering (μg/m³),mass concentration of particles derived from Lorenz-Mie calculation of OPC scattering (μg/m³)
DateTimeUTC,F1_M11,P_M11,Q1_M11,Q2_M11,T1_M11,T2_M11,T3_M11,T4_M11,T5_M11,U1_M11,ZSPAN_M11,X2_M11,X0_M11,X1_M11
2024-06-06 23:00:00,SystemResetWarning,0830.3,5.00,000.00,029.1,026.7,000.0,037.4,030.1,021.0,0000.0,0004.29,0022.33,0002.14
2024-06-06 23:01:00,SystemResetWarning,0830.2,5.02,000.00,028.7,025.5,000.0,037.4,029.5,020.8,0000.0,0004.29,0021.91,0002.13
2024-06-06 23:02:00,SystemResetWarning,0830.2,5.01,000.00,028.6,026.0,000.0,037.4,029.7,020.7,0000.0,0004.25,0021.48,0002.12
2024-06-06 23:03:00,SystemResetWarning,0830.2,4.99,000.00,028.7,026.5,000.0,037.3,030.0,021.6,0000.0,0004.24,0021.72,0002.12
2024-06-06 23:04:00,SystemResetWarning,0830.3,5.00,000.00,028.7,027.0,000.0,037.2,030.2,021.4,0000.0,0004.15,0019.36,0002.12
2024-06-06 23:05:00,SystemResetWarning,0830.3,5.01,000.00,028.8,027.4,000.0,037.2,030.4,020.5,0000.0,0004.10,0018.62,0002.11
2024-06-06 23:06:00,SystemResetWarning,0830.3,5.00,000.00,028.9,027.8,000.0,037.2,030.6,021.9,0000.0,0004.08,0019.76,0002.09
2024-06-06 23:07:00,SystemResetWarning,0830.3,4.99,000.00,029.0,028.1,000.0,037.2,030.8,021.6,0000.0,0004.06,0020.25,0002.09
2024-06-06 23:08:00,SystemResetWarning,0830.3,5.00,000.00,029.0,028.4,000.0,037.2,030.9,021.1,0000.0,0004.00,0021.19,0002.07
2024-06-06 23:09:00,SystemResetWarning,0830.3,5.00,000.00,029.1,028.6,000.0,037.2,031.0,020.7,0000.0,0003.97,0020.69,0002.06
2024-06-06 23:10:00,SystemResetWarning,0830.3,5.00,000.00,029.2,028.8,000.0,037.3,031.1,021.6,0000.0,0003.95,0021.03,0002.06
2024-06-06 23:11:00,SystemResetWarning,0830.2,5.00,000.00,029.3,028.9,000.0,037.3,031.2,021.3,0000.0,0003.95,0018.51,0002.06
2024-06-06 23:12:00,SystemResetWarning,0830.2,4.98,000.00,029.2,027.3,000.0,037.4,030.3,021.5,0000.0,0003.89,0017.80,0002.04
2024-06-06 23:13:00,SystemResetWarning,0830.2,5.02,000.00,028.8,025.6,000.0,037.4,029.5,021.0,0000.0,0003.93,0017.18,0002.04
2024-06-06 23:14:00,SystemResetWarning,0830.2,5.01,000.00,028.6,025.9,000.0,037.4,029.6,021.9,0000.0,0003.91,0017.89,0002.03
2024-06-06 23:15:00,SystemResetWarning,0830.2,4.99,000.00,028.6,026.4,000.0,037.3,029.8,020.9,0000.0,0003.92,0018.42,0002.00
2024-06-06 23:16:00,SystemResetWarning,0830.2,5.00,000.00,028.6,026.9,000.0,037.2,030.1,021.4,0000.0,0003.87,0016.95,0002.00
2024-06-06 23:17:00,SystemResetWarning,0830.2,5.01,000.00,028.7,027.3,000.0,037.2,030.3,021.0,0000.0,0003.87,0014.80,0002.02
2024-06-06 23:18:00,SystemResetWarning,0830.2,5.00,000.00,028.8,027.7,000.0,037.1,030.5,021.4,0000.0,0003.94,0013.78,0002.03
2024-06-06 23:19:00,SystemResetWarning,0830.2,5.00,000.00,028.9,028.0,000.0,037.2,030.7,021.3,0000.0,0003.92,0012.81,0002.04
2024-06-06 23:20:00,SystemResetWarning,0830.1,5.00,000.00,029.0,028.3,000.0,037.2,030.8,021.2,0000.0,0003.87,0013.95,0002.04
2024-06-06 23:21:00,SystemResetWarning,0830.1,4.99,000.00,029.1,028.6,000.0,037.2,031.0,021.8,0000.0,0003.88,0014.59,0002.05
2024-06-06 23:22:00,SystemResetWarning,0830.1,4.99,000.00,029.2,028.8,000.0,037.2,031.1,020.8,0000.0,0003.91,0015.09,0002.08
2024-06-06 23:23:00,SystemResetWarning,0830.1,5.00,000.00,029.3,029.0,000.0,037.3,031.2,020.7,0000.0,0003.96,0016.43,0002.10
2024-06-06 23:24:00,SystemResetWarning,0830.1,5.00,000.00,029.4,029.1,000.0,037.3,031.3,021.0,0000.0,0003.97,0016.65,0002.09
2024-06-06 23:25:00,SystemResetWarning,0830.1,4.99,000.00,029.4,028.2,000.0,037.4,030.8,021.6,0000.0,0003.99,0015.73,0002.11
2024-06-06 23:26:00,SystemResetWarning,0830.0,5.01,000.00,029.0,026.0,000.0,037.5,029.8,021.1,0000.0,0004.00,0015.09,0002.12
2024-06-06 23:27:00,SystemResetWarning,0830.0,5.01,000.00,028.7,025.8,000.0,037.4,029.6,021.0,0000.0,0004.02,0015.52,0002.12
2024-06-06 23:28:00,SystemResetWarning,0830.0,5.00,000.00,028.7,026.3,000.0,037.4,029.8,021.3,0000.0,0004.05,0015.82,0002.11
2024-06-06 23:29:00,SystemResetWarning,0830.0,4.99,000.00,028.7,026.8,000.0,037.3,030.1,020.9,0000.0,0004.01,0017.12,0002.09
2024-06-06 23:30:00,SystemResetWarning,0830.1,5.00,000.00,028.8,027.3,000.0,037.2,030.4,021.6,0000.0,0003.96,0017.50,0002.07
2024-06-06 23:31:00,SystemResetWarning,0830.0,5.00,000.00,028.9,027.7,000.0,037.2,030.6,022.5,0000.0,0003.98,0018.07,0002.06
2024-06-06 23:32:00,SystemResetWarning,0830.0,5.02,000.00,029.0,028.0,000.0,037.2,030.7,021.6,0000.0,0003.97,0018.52,0002.04
2024-06-06 23:33:00,SystemResetWarning,0830.1,5.00,000.00,029.1,028.3,000.0,037.2,030.9,021.1,0000.0,0003.98,0019.58,0002.03
2024-06-06 23:34:00,SystemResetWarning,0830.0,5.00,000.00,029.2,028.6,000.0,037.3,031.0,021.3,0000.0,0003.96,0022.26,0002.00
2024-06-06 23:35:00,SystemResetWarning,0830.0,5.01,000.00,029.3,028.8,000.0,037.3,031.1,021.1,0000.0,0003.93,0022.97,0001.98
2024-06-06 23:36:00,SystemResetWarning,0830.0,5.00,000.00,029.3,028.9,000.0,037.3,031.2,020.8,0000.0,0003.92,0023.12,0001.98
2024-06-06 23:37:00,SystemResetWarning,0830.0,4.98,000.00,029.4,028.5,000.0,037.4,031.0,020.8,0000.0,0003.91,0023.08,0001.97
2024-06-06 23:38:00,SystemResetWarning,0830.0,5.01,000.00,029.1,026.3,000.0,037.5,029.9,021.1,0000.0,0003.91,0022.81,0001.96
2024-06-06 23:39:00,SystemResetWarning,0829.9,5.01,000.00,028.7,025.5,000.0,037.5,029.5,021.4,0000.0,0003.91,0022.73,0001.97
2024-06-06 23:40:00,SystemResetWarning,0829.9,4.99,000.00,028.7,026.1,000.0,037.4,029.7,021.8,0000.0,0003.92,0023.17,0001.97
2024-06-06 23:41:00,SystemResetWarning,0829.9,5.00,000.00,028.7,026.6,000.0,037.3,030.0,022.3,0000.0,0003.95,0022.09,0001.98
2024-06-06 23:42:00,SystemResetWarning,0829.9,5.01,000.00,028.7,027.0,000.0,037.2,030.2,021.7,0000.0,0004.00,0021.43,0001.99
2024-06-06 23:43:00,SystemResetWarning,0830.0,5.00,000.00,028.8,027.5,000.0,037.2,030.5,022.1,0000.0,0004.07,0020.64,0002.00
2024-06-06 23:44:00,SystemResetWarning,0830.0,5.00,000.00,028.9,027.9,000.0,037.2,030.7,021.1,0000.0,0004.02,0018.97,0001.98
2024-06-06 23:45:00,SystemResetWarning,0830.1,5.00,000.00,029.0,028.2,000.0,037.2,030.8,021.0,0000.0,0004.00,0017.64,0001.99
2024-06-06 23:46:00,SystemResetWarning,0830.0,5.01,000.00,029.1,028.5,000.0,037.2,030.9,021.1,0000.0,0003.96,0015.71,0001.99
2024-06-06 23:47:00,SystemResetWarning,0830.0,4.99,000.00,029.2,028.7,000.0,037.3,031.1,020.7,0000.0,0003.99,0016.43,0002.00
2024-06-06 23:48:00,SystemResetWarning,0830.0,5.00,000.00,029.3,028.9,000.0,037.3,031.2,021.4,0000.0,0003.97,0016.42,0002.00
2024-06-06 23:49:00,SystemResetWarning,0830.0,5.00,000.00,029.4,028.8,000.0,037.4,031.1,022.3,0000.0,0003.99,0017.19,0002.00
2024-06-06 23:50:00,SystemResetWarning,0829.9,5.00,000.00,029.2,026.9,000.0,037.4,030.2,021.7,0000.0,0004.05,0018.29,0002.00
2024-06-06 23:51:00,SystemResetWarning,0829.8,5.01,000.00,028.7,025.4,000.0,037.4,029.4,022.1,0000.0,0004.05,0018.18,0002.00
2024-06-06 23:52:00,SystemResetWarning,0829.8,5.01,000.00,028.6,025.9,000.0,037.4,029.6,021.7,0000.0,0004.03,0018.66,0001.98
2024-06-06 23:53:00,SystemResetWarning,0829.8,4.99,000.00,028.6,026.4,000.0,037.3,029.9,021.3,0000.0,0003.99,0018.89,0001.96
2024-06-06 23:54:00,SystemResetWarning,0829.9,5.00,000.00,028.7,026.9,000.0,037.2,030.2,022.2,0000.0,0003.99,0020.11,0001.95
2024-06-06 23:55:00,SystemResetWarning,0829.9,5.01,000.00,028.8,027.3,000.0,037.2,030.4,022.2,0000.0,0004.02,0020.71,0001.94
2024-06-06 23:56:00,SystemResetWarning,0829.9,5.00,000.00,028.8,027.7,000.0,037.2,030.6,022.3,0000.0,0004.07,0020.31,0001.93
2024-06-06 23:57:00,SystemResetWarning,0829.9,4.99,000.00,028.9,028.1,000.0,037.2,030.7,022.1,0000.0,0004.26,0024.73,0001.93
2024-06-06 23:58:00,SystemResetWarning,0829.9,5.00,000.00,029.0,028.3,000.0,037.2,030.9,021.5,0000.0,0004.71,0030.53,0001.98
2024-06-06 23:59:00,SystemResetWarning,0829.9,5.00,000.00,029.1,028.6,000.0,037.2,031.0,021.1,0000.0,0004.92,0032.60,0001.99
